Location: Newark
(45.9456°N, 15.4064°E)
Time: 15:28:46
(UTC+00:00)

Vanguard 3 - Pass Details

Date: 28 January 2020
Orbit: 508 x 3263 km, 33.3° (Epoch: 17 February)

Event Time Altitude Azimuth Distance (km) Brightness Sun altitude
Rises 14:20:26 0° 216° (SW) 6,392 13.6 12.9°
Reaches altitude 10° 14:24:50 10° 208° (SSW) 5,668 13.2 12.3°
Maximum altitude 14:40:42 37° 150° (SSE) 4,329 11.1 10.3°
Drops below altitude 10° 14:57:00 10° 92° (E) 5,851 11.1 8.1°
Sets 15:01:35 0° 85° (E) 6,615 11.3 7.4°
